GW4056 Weather Reports


time (UTC)temp
C
wind
direction
speed
KPH
gust
KPH
rain 1hr
cm
rain 24hr
cm
rain mn
cm
humidity
%
barometer
mb
20260507000023 20 207 1.6 9.7 0.00 0.00 0.00 75 1008.4
20260506234519 20 268 4.8 9.7 0.00 0.00 0.00 74 1008.1
20260506233020 20 249 3.2 11.3 0.00 0.00 0.00 74 1007.9
20260506231516 20 237 8.0 16.1 0.00 0.00 0.00 73 1007.8
20260506230014 20 174 3.2 12.9 0.00 0.00 0.00 73 1007.9
20260506224514 20 185 6.4 19.3 0.00 0.00 0.00 72 1008.0
20260506223003 20 155 6.4 16.1 0.00 0.00 0.00 72 1007.9
20260506221526 20 218 6.4 19.3 0.00 0.00 0.00 72 1007.9
20260506220024 20 282 1.6 20.9 0.00 0.00 0.00 73 1008.0
20260506214521 20 231 4.8 19.3 0.00 0.00 0.00 73 1007.9
20260506213021 20 207 8.0 20.9 0.00 0.00 0.00 73 1007.7
20260506211517 20 259 4.8 20.9 0.00 0.00 0.00 73 1007.6
20260506210012 20 259 6.4 17.7 0.00 0.00 0.00 74 1007.3
20260506204512 19 194 6.4 16.1 0.00 0.00 0.00 75 1007.4
20260506203033 18 285 6.4 12.9 0.00 0.00 0.00 76 1007.4
20260506201526 18 278 8.0 19.3 0.00 0.00 0.00 76 1007.6
20260506200026 18 218 6.4 17.7 0.00 0.00 0.00 77 1007.7
20260506194522 18 248 4.8 12.9 0.00 0.00 0.00 79 1007.8
20260506193019 18 206 3.2 17.7 0.00 0.00 0.00 80 1007.9
20260506191517 18 217 8.0 24.1 0.00 0.00 0.00 80 1008.0
20260506190016 18 248 11.3 25.7 0.00 0.00 0.00 74 1008.1
20260506184508 18 219 9.7 27.4 0.00 0.00 0.00 75 1008.2
20260506183009 19 164 12.9 30.6 0.00 0.00 0.00 72 1008.2
20260506181526 21 274 17.7 30.6 0.00 0.00 0.00 64 1008.2
20260506180022 21 214 12.9 33.8 0.00 0.00 0.00 64 1008.2
20260506174522 21 235 12.9 30.6 0.00 0.00 0.00 63 1008.4
20260506173021 21 190 12.9 25.7 0.00 0.00 0.00 64 1008.5
20260506171517 21 190 12.9 27.4 0.00 0.00 0.00 64 1008.8
20260506170014 20 209 9.7 17.7 0.00 0.00 0.00 66 1008.9
20260506164510 20 220 8.0 20.9 0.00 0.00 0.00 66 1009.4
20260506163010 20 238 8.0 25.7 0.00 0.00 0.00 66 1009.7
20260506161505 21 200 4.8 19.3 0.00 0.00 0.00 64 1010.0
20260506160004 21 226 14.5 33.8 0.00 0.00 0.00 59 1010.0
20260506154512 22 266 8.0 30.6 0.00 0.00 0.00 58 1010.0
20260506153004 21 219 14.5 29.0 0.00 0.00 0.00 57 1010.0
20260506151519 21 224 11.3 30.6 0.00 0.00 0.00 57 1010.0
20260506150014 21 218 16.1 32.2 0.00 0.00 0.00 57 1010.0
20260506144511 22 202 6.4 40.2 0.00 0.00 0.00 57 1009.9
20260506143008 22 188 16.1 27.4 0.00 0.00 0.00 57 1009.9
20260506141506 21 221 16.1 29.0 0.00 0.00 0.00 58 1009.8
20260506140010 21 141 11.3 25.7 0.00 0.00 0.00 61 1009.8
20260506134506 21 141 12.9 25.7 0.00 0.00 0.00 60 1010.1
20260506133021 21 224 12.9 22.5 0.00 0.00 0.00 62 1010.3
20260506131520 20 198 11.3 29.0 0.00 0.00 0.00 65 1010.6
20260506130017 20 245 12.9 20.9 0.00 0.00 0.00 67 1010.3
20260506124512 19 218 8.0 22.5 0.00 0.00 0.00 70 1010.4
20260506123010 18 183 6.4 19.3 0.00 0.00 0.00 73 1010.7
20260506121508 18 209 9.7 25.7 0.00 0.00 0.00 73 1010.6
20260506120012 17 203 9.7 19.3 0.00 0.00 0.00 74 1010.8
20260506114525 17 236 11.3 22.5 0.00 0.00 0.00 75 1010.8
20260506113020 17 211 8.0 22.5 0.00 0.00 0.00 77 1010.9
20260506111525 16 228 8.0 19.3 0.00 0.00 0.00 79 1011.1
20260506110018 16 219 11.3 24.1 0.00 0.00 0.00 80 1011.0
20260506104510 16 158 6.4 20.9 0.00 0.00 0.00 81 1011.0
20260506103008 15 149 4.8 19.3 0.00 0.00 0.00 83 1011.0
20260506101505 15 226 6.4 12.9 0.00 0.00 0.00 83 1010.8
20260506100028 15 212 6.4 12.9 0.00 0.00 0.00 83 1010.7
20260506094523 16 198 8.0 17.7 0.00 0.00 0.00 82 1010.7
20260506093023 16 186 9.7 20.9 0.00 0.00 0.00 82 1010.7
20260506091518 16 233 9.7 16.1 0.00 0.00 0.00 82 1010.8
20260506090015 16 214 6.4 22.5 0.00 0.00 0.00 81 1011.0
20260506084517 16 186 8.0 17.7 0.00 0.00 0.00 81 1010.9
20260506083016 16 205 9.7 22.5 0.00 0.00 0.00 80 1011.0
20260506081528 16 202 3.2 24.1 0.00 0.00 0.00 80 1011.0
20260506073005 16 212 6.4 20.9 0.00 0.00 0.00 79 1011.2
20260506071504 17 184 4.8 17.7 0.00 0.00 0.00 78 1011.4
20260506061506 17 199 4.8 17.7 0.00 0.00 0.00 77 1011.4
20260506044515 18 203 8.0 16.1 0.00 0.00 0.00 70 1011.7
20260506043008 18 186 8.0 19.3 0.00 0.00 0.00 69 1011.7
20260506041509 18 159 6.4 20.9 0.00 0.00 0.00 69 1011.7
20260506040004 18 193 11.3 27.4 0.00 0.00 0.00 68 1011.7
20260506034506 18 215 11.3 22.5 0.00 0.00 0.00 68 1011.6
20260506033012 18 159 8.0 24.1 0.00 0.00 0.00 67 1011.8
20260506031510 18 200 9.7 20.9 0.00 0.00 0.00 67 1011.7
20260506030012 19 207 14.5 27.4 0.00 0.00 0.00 66 1011.7
20260506024510 19 113 9.7 25.7 0.00 0.00 0.00 66 1011.6
20260506023012 19 221 9.7 27.4 0.00 0.00 0.00 65 1011.8
20260506021509 19 230 14.5 27.4 0.00 0.00 0.00 63 1011.8
20260506020006 20 199 8.0 22.5 0.00 0.00 0.00 61 1011.8
20260506014515 20 229 11.3 24.1 0.00 0.00 0.00 60 1011.6
20260506013033 20 168 9.7 20.9 0.00 0.00 0.00 60 1011.6
20260506011523 20 205 12.9 22.5 0.00 0.00 0.00 59 1011.5
20260506010016 20 233 11.3 27.4 0.00 0.00 0.00 59 1011.3
20260506004516 20 224 12.9 22.5 0.00 0.00 0.00 58 1011.1
20260506003012 20 153 11.3 30.6 0.00 0.00 0.00 56 1011.1
20260506001512 21 208 8.0 22.5 0.00 0.00 0.00 55 1011.0